Volver al catálogo

COSMOS 1275 DEB

ActivoPO
NORAD 42097·DEBRIS·🇷🇺 Russia

Lanzado Jun 4, 1981 desde Plesetsk Cosmodrome

Loading…

Próximos Pases (próximas 24 horas)

TLE

ActualizadoSource: Space-Track

Época: Sep 14, 2026, 08:57 UTC

1 42097U 81053PH  26257.37357595  .00002271  00000-0  90651-3 0  9991
2 42097  82.8029 284.7846 0054405  58.1798 302.4668 14.27345013203541

Sigue COSMOS 1275 DEB en tiempo real con AllMySat

Download on the App Store